Weather History for Black River Falls, WI

Change the Weather History Date:

Monday, October 8, 2012

  Actual Average (KLSE) Record (KLSE)
Temperature  
Mean Temperature 42 °F 53 °F  
Max Temperature 62 °F 64 °F 83 °F (2010)
Min Temperature 23 °F 43 °F 26 °F (1976)
Degree Days  
Heating Degree Days 22 12  
Month to date heating degree days 88  
Since 1 July heating degree days 248  
Cooling Degree Days 0 0  
Month to date cooling degree days 7  
Year to date cooling degree days 781  
Moisture  
Dew Point 27 °F    
Average Humidity 51    
Maximum Humidity 86    
Minimum Humidity 27    
Precipitation  
Precipitation 0.00 in 0.08 in 1.10 in (1882)
Month to date precipitation 0.67  
Year to date precipitation 28.19  
Snow  
Snow 0.00 in 0.00 in 0.00 in (1990)
Month to date snowfall 0.0  
Since 1 July snowfall 0.0  
Since 1 September snowfall 0.0  
Snow Depth -    
Sea Level Pressure  
Sea Level Pressure 29.83 in    
Wind  
Wind Speed 5 mph (SSW)    
Max Wind Speed 18 mph    
Max Gust Speed 28 mph    
Visibility 10 miles    
Events      
T = Trace of Precipitation, MM = Missing Value Source: NWS Daily Summary

Daily Weather History Graph

Daily Weather History Graph

Search for Another Location

Airport:

Trip Planner

Search our weather history database for the weather conditions in past years. The results will help you decide how hot, cold, wet, or windy it might be!

Date:

Astronomy

Oct. 08, 2012 Rise Set
Actual Time 7:10 AM CDT 6:30 PM CDT
Civil Twilight 6:41 AM CDT 6:59 PM CDT
Nautical Twilight 6:07 AM CDT 7:33 PM CDT
Astronomical Twilight 5:33 AM CDT 8:06 PM CDT
Moon No Moon Rise 2:33 PM CDT (10/8)
Length of Visible Light 12h 18m
Length of Day
11h 20m
Last Quarter, 46% of the Moon is Illuminated
Oct 8
Last Quarter
Oct 15
New
Oct 21
First Quarter
Oct 29
Full
Nov 6
Last Quarter

Hourly Weather History & Observations

Time (CDT) Temp. Windchill Dew Point Humidity Pressure Visibility Wind Dir Wind Speed Gust Speed Precip Events Conditions
12:15 AM 26.6 °F - 17.6 °F 69% 29.99 in 10.0 mi Calm Calm - N/A   Overcast
12:35 AM 26.6 °F 22.6 °F 17.6 °F 69% 29.98 in 10.0 mi SSE 3.5 mph - N/A   Overcast
12:55 AM 24.8 °F 20.5 °F 17.6 °F 74% 29.98 in 10.0 mi SSE 3.5 mph - N/A   Mostly Cloudy
1:15 AM 24.8 °F - 17.6 °F 74% 29.98 in 10.0 mi Calm Calm - N/A   Overcast
1:35 AM 26.6 °F - 19.4 °F 74% 29.98 in 10.0 mi Calm Calm - N/A   Scattered Clouds
1:55 AM 24.8 °F - 19.4 °F 80% 29.97 in 10.0 mi Calm Calm - N/A   Clear
2:15 AM 24.8 °F - 19.4 °F 80% 29.97 in 10.0 mi Calm Calm - N/A   Clear
2:35 AM 23.0 °F - 17.6 °F 80% 29.96 in 10.0 mi Calm Calm - N/A   Clear
2:55 AM 23.0 °F - 19.4 °F 86% 29.95 in 10.0 mi Calm Calm - N/A   Clear
3:15 AM 24.8 °F - 19.4 °F 80% 29.95 in 10.0 mi Calm Calm - N/A   Clear
3:35 AM 23.0 °F 18.4 °F 19.4 °F 86% 29.94 in 10.0 mi SSE 3.5 mph - N/A   Clear
3:55 AM 23.0 °F 18.4 °F 19.4 °F 86% 29.93 in 10.0 mi SSE 3.5 mph - N/A   Clear
4:15 AM 23.0 °F 18.4 °F 17.6 °F 80% 29.93 in 10.0 mi SE 3.5 mph - N/A   Clear
4:35 AM 23.0 °F 18.4 °F 17.6 °F 80% 29.93 in 10.0 mi SSE 3.5 mph - N/A   Clear
4:55 AM 26.6 °F 22.6 °F 19.4 °F 74% 29.92 in 10.0 mi South 3.5 mph - N/A   Clear
5:15 AM 30.2 °F 25.4 °F 21.2 °F 69% 29.92 in 10.0 mi SSE 4.6 mph - N/A   Clear
5:35 AM 32.0 °F 28.7 °F 21.2 °F 64% 29.92 in 10.0 mi SSE 3.5 mph - N/A   Clear
5:55 AM 32.0 °F - 21.2 °F 64% 29.91 in 10.0 mi Calm Calm - N/A   Clear
6:15 AM 32.0 °F - 21.2 °F 64% 29.91 in 10.0 mi Calm Calm - N/A   Clear
6:35 AM 32.0 °F 28.7 °F 21.2 °F 64% 29.91 in 10.0 mi SSE 3.5 mph - N/A   Clear
6:55 AM 32.0 °F - 23.0 °F 69% 29.91 in 10.0 mi Calm Calm - N/A   Clear
7:15 AM 32.0 °F 27.5 °F 23.0 °F 69% 29.90 in 10.0 mi SSE 4.6 mph - N/A   Clear
7:35 AM 32.0 °F - 23.0 °F 69% 29.90 in 10.0 mi Calm Calm - N/A   Clear
7:55 AM 30.2 °F - 23.0 °F 75% 29.90 in 10.0 mi Calm Calm - N/A   Clear
8:15 AM 33.8 °F 30.8 °F 26.6 °F 75% 29.90 in 10.0 mi South 3.5 mph - N/A   Clear
8:35 AM 41.0 °F 36.4 °F 26.6 °F 57% 29.89 in 10.0 mi South 6.9 mph - N/A   Clear
8:55 AM 42.8 °F 37.5 °F 28.4 °F 57% 29.89 in 10.0 mi South 9.2 mph - N/A   Clear
9:15 AM 44.6 °F 41.4 °F 28.4 °F 53% 29.89 in 10.0 mi SSW 5.8 mph - N/A   Clear
9:35 AM 46.4 °F 41.1 °F 28.4 °F 50% 29.88 in 10.0 mi SSW 11.5 mph 17.3 mph N/A   Clear
9:55 AM 46.4 °F 43.5 °F 30.2 °F 53% 29.87 in 10.0 mi SSW 5.8 mph - N/A   Clear
10:15 AM 50.0 °F - 30.2 °F 47% 29.86 in 10.0 mi SSW 8.1 mph 16.1 mph N/A   Mostly Cloudy
10:35 AM 48.2 °F - 30.2 °F 50% 29.87 in 10.0 mi SW 8.1 mph 19.6 mph N/A   Overcast
10:55 AM 48.2 °F - 30.2 °F 50% 29.87 in 10.0 mi SW 8.1 mph 21.9 mph N/A   Overcast
11:15 AM 50.0 °F - 30.2 °F 47% 29.87 in 10.0 mi SW 5.8 mph - N/A   Overcast
11:35 AM 51.8 °F - 30.2 °F 44% 29.86 in 10.0 mi SW 10.4 mph 16.1 mph N/A   Overcast
11:55 AM 51.8 °F - 30.2 °F 44% 29.85 in 10.0 mi SSW 10.4 mph 17.3 mph N/A   Mostly Cloudy
12:15 PM 51.8 °F - 30.2 °F 44% 29.84 in 10.0 mi SSW 8.1 mph 18.4 mph N/A   Mostly Cloudy
12:55 PM 53.6 °F - 30.2 °F 41% 29.81 in 10.0 mi South 8.1 mph 16.1 mph N/A   Overcast
1:15 PM 55.4 °F - 32.0 °F 41% 29.80 in 10.0 mi SSW 13.8 mph 19.6 mph N/A   Mostly Cloudy
1:35 PM 59.0 °F - 32.0 °F 36% 29.78 in 10.0 mi South 12.7 mph 21.9 mph N/A   Overcast
1:55 PM 57.2 °F - 32.0 °F 38% 29.78 in 10.0 mi South 9.2 mph 21.9 mph N/A   Overcast
2:15 PM 59.0 °F - 32.0 °F 36% 29.76 in 10.0 mi SSW 13.8 mph 21.9 mph N/A   Overcast
2:35 PM 59.0 °F - 32.0 °F 36% 29.76 in 10.0 mi SSW 10.4 mph 17.3 mph N/A   Overcast
2:55 PM 60.8 °F - 32.0 °F 34% 29.75 in 10.0 mi SSW 8.1 mph 19.6 mph N/A   Overcast
3:15 PM 62.6 °F - 30.2 °F 30% 29.74 in 10.0 mi SSW 17.3 mph 24.2 mph N/A   Overcast
3:35 PM 62.6 °F - 30.2 °F 30% 29.73 in 10.0 mi SSW 13.8 mph 27.6 mph N/A   Overcast
3:55 PM 62.6 °F - 30.2 °F 30% 29.72 in 10.0 mi SSW 13.8 mph 21.9 mph N/A   Mostly Cloudy
4:15 PM 62.6 °F - 28.4 °F 27% 29.72 in 10.0 mi SSW 16.1 mph 21.9 mph N/A   Scattered Clouds
4:35 PM 62.6 °F - 28.4 °F 27% 29.71 in 10.0 mi SSW 12.7 mph 27.6 mph N/A   Scattered Clouds
4:55 PM 62.6 °F - 28.4 °F 27% 29.70 in 10.0 mi South 13.8 mph 21.9 mph N/A   Scattered Clouds
5:15 PM 62.6 °F - 30.2 °F 30% 29.71 in 10.0 mi SSW 11.5 mph 23.0 mph N/A   Mostly Cloudy
5:35 PM 62.6 °F - 30.2 °F 30% 29.72 in 10.0 mi SSW 12.7 mph 20.7 mph N/A   Overcast
5:55 PM 60.8 °F - 30.2 °F 31% 29.71 in 10.0 mi SSW 13.8 mph 27.6 mph N/A   Overcast
6:15 PM 60.8 °F - 30.2 °F 31% 29.70 in 10.0 mi South 12.7 mph 21.9 mph N/A   Mostly Cloudy
6:55 PM 60.8 °F - 30.2 °F 31% 29.70 in 10.0 mi SSW 10.4 mph 23.0 mph N/A   Overcast
7:35 PM 60.8 °F - 30.2 °F 31% 29.71 in 10.0 mi SSW 11.5 mph 17.3 mph N/A   Mostly Cloudy
7:55 PM 60.8 °F - 32.0 °F 34% 29.71 in 10.0 mi SSW 13.8 mph 18.4 mph N/A   Scattered Clouds
8:15 PM 60.8 °F - 32.0 °F 34% 29.72 in 10.0 mi SSW 11.5 mph 25.3 mph N/A   Mostly Cloudy
8:35 PM 60.8 °F - 32.0 °F 34% 29.72 in 10.0 mi SSW 15.0 mph 21.9 mph N/A   Overcast
8:55 PM 60.8 °F - 32.0 °F 34% 29.72 in 10.0 mi SSW 13.8 mph 20.7 mph N/A   Overcast
9:15 PM 60.8 °F - 32.0 °F 34% 29.72 in 10.0 mi SSW 18.4 mph 27.6 mph N/A   Overcast
9:35 PM 60.8 °F - 32.0 °F 34% 29.72 in 10.0 mi SW 12.7 mph 23.0 mph N/A   Overcast
9:55 PM 60.8 °F - 32.0 °F 34% 29.73 in 10.0 mi SW 16.1 mph 21.9 mph N/A   Overcast
10:15 PM 59.0 °F - 32.0 °F 36% 29.73 in 10.0 mi SSW 12.7 mph 20.7 mph N/A   Overcast
10:55 PM 59.0 °F - 32.0 °F 36% 29.74 in 10.0 mi SW 10.4 mph 19.6 mph N/A   Overcast
11:35 PM 59.0 °F - 32.0 °F 36% 29.74 in 10.0 mi SW 10.4 mph 18.4 mph N/A   Overcast
11:55 PM 59.0 °F - 32.0 °F 36% 29.74 in 10.0 mi SW 10.4 mph 18.4 mph N/A   Overcast